• In Deutschland
  • Länderverzeichnis
  • Für 7 Tage
  • Wassertemperatur
  • Satellitenkarten
  • Wetterkarte
  • Widgets
  • user-avatar
    Anmelden

    Stündliche Wetter San Luis

    Heute, 18 November, Samstag

    Zeit Temperatur Niederschläge Wind Luftdruck Luftfeuchtigkeit
    00:00 +12°C° 0 mm 5 m/S 700 mmHg 22%
    01:00 +12°C° 0 mm 4 m/S 700 mmHg 24%
    02:00 +11°C° 0 mm 3 m/S 699 mmHg 25%
    03:00 +11°C° 0 mm 3 m/S 699 mmHg 26%
    04:00 +10°C° 0 mm 2 m/S 700 mmHg 27%
    05:00 +10°C° 0 mm 2 m/S 700 mmHg 28%
    06:00 +13°C° 0 mm 2 m/S 700 mmHg 25%
    07:00 +14°C° 0 mm 2 m/S 700 mmHg 22%
    08:00 +16°C° 0 mm 2 m/S 701 mmHg 19%
    09:00 +18°C° 0 mm 2 m/S 701 mmHg 18%
    10:00 +20°C° 0 mm 1 m/S 701 mmHg 17%
    11:00 +22°C° 0 mm 1 m/S 700 mmHg 15%
    12:00 +23°C° 0 mm 1 m/S 700 mmHg 14%
    13:00 +25°C° 0 mm 2 m/S 699 mmHg 13%
    14:00 +26°C° 0 mm 3 m/S 698 mmHg 12%
    15:00 +26°C° 0 mm 3 m/S 697 mmHg 11%
    16:00 +27°C° 0 mm 3 m/S 697 mmHg 11%
    17:00 +27°C° 0 mm 3 m/S 696 mmHg 10%
    18:00 +25°C° 0 mm 3 m/S 695 mmHg 12%
    19:00 +22°C° 0 mm 3 m/S 695 mmHg 14%
    20:00 +20°C° 0 mm 3 m/S 695 mmHg 17%
    21:00 +20°C° 0 mm 3 m/S 695 mmHg 17%
    22:00 +19°C° 0 mm 4 m/S 695 mmHg 16%
    23:00 +19°C° 0 mm 5 m/S 695 mmHg 16%

    Morgen, 19 November, Sonntag

    Zeit Temperatur Niederschläge Wind Luftdruck Luftfeuchtigkeit
    00:00 +19°C° 0 mm 5 m/S 695 mmHg 17%
    01:00 +19°C° 0 mm 6 m/S 695 mmHg 17%
    02:00 +18°C° 0 mm 7 m/S 694 mmHg 18%
    03:00 +19°C° 0 mm 6 m/S 695 mmHg 20%
    04:00 +17°C° 0 mm 6 m/S 695 mmHg 23%
    05:00 +17°C° 0 mm 6 m/S 695 mmHg 25%
    06:00 +19°C° 0 mm 6 m/S 696 mmHg 26%
    07:00 +20°C° 0 mm 6 m/S 697 mmHg 27%
    08:00 +21°C° 0 mm 6 m/S 698 mmHg 27%
    09:00 +23°C° 0 mm 5 m/S 698 mmHg 26%
    10:00 +25°C° 0 mm 4 m/S 698 mmHg 24%
    11:00 +26°C° 0 mm 3 m/S 698 mmHg 22%
    12:00 +27°C° 0 mm 3 m/S 697 mmHg 21%
    13:00 +28°C° 0 mm 3 m/S 696 mmHg 19%
    14:00 +29°C° 0 mm 3 m/S 696 mmHg 17%
    15:00 +29°C° 0 mm 3 m/S 695 mmHg 17%
    16:00 +30°C° 0 mm 4 m/S 694 mmHg 18%
    17:00 +30°C° 0 mm 4 m/S 693 mmHg 18%
    18:00 +27°C° 0 mm 5 m/S 693 mmHg 23%
    19:00 +24°C° 0 mm 6 m/S 693 mmHg 28%
    20:00 +22°C° 0 mm 7 m/S 693 mmHg 33%
    21:00 +22°C° 0 mm 7 m/S 693 mmHg 34%
    22:00 +21°C° 0 mm 7 m/S 694 mmHg 35%
    23:00 +20°C° 0 mm 6 m/S 694 mmHg 37%

    übermorgen, 20 November, Montag

    Zeit Temperatur Niederschläge Wind Luftdruck Luftfeuchtigkeit
    00:00 +20°C° 0 mm 7 m/S 693 mmHg 37%
    01:00 +18°C° 0 mm 7 m/S 693 mmHg 37%
    02:00 +18°C° 0 mm 7 m/S 693 mmHg 38%
    03:00 +18°C° 0 mm 7 m/S 693 mmHg 39%
    04:00 +17°C° 0 mm 7 m/S 693 mmHg 39%
    05:00 +17°C° 0 mm 7 m/S 693 mmHg 40%
    06:00 +20°C° 0 mm 7 m/S 693 mmHg 39%
    07:00 +21°C° 0 mm 7 m/S 694 mmHg 38%
    08:00 +22°C° 0 mm 7 m/S 694 mmHg 37%
    09:00 +24°C° 0 mm 6 m/S 695 mmHg 33%
    10:00 +27°C° 0 mm 6 m/S 695 mmHg 29%
    11:00 +28°C° 0 mm 5 m/S 696 mmHg 25%
    12:00 +28°C° 0 mm 7 m/S 696 mmHg 27%
    13:00 +28°C° 0 mm 8 m/S 696 mmHg 28%
    14:00 +29°C° 0 mm 10 m/S 695 mmHg 30%
    15:00 +28°C° 0,1 mm 11 m/S 696 mmHg 31%
    16:00 +27°C° 0,1 mm 11 m/S 696 mmHg 32%
    17:00 +26°C° 0,1 mm 12 m/S 696 mmHg 34%
    18:00 +24°C° 0 mm 10 m/S 697 mmHg 37%
    19:00 +22°C° 0 mm 9 m/S 698 mmHg 40%
    20:00 +21°C° 0 mm 8 m/S 698 mmHg 43%
    21:00 +20°C° 0 mm 7 m/S 699 mmHg 44%
    22:00 +20°C° 0 mm 6 m/S 700 mmHg 46%
    23:00 +19°C° 0 mm 6 m/S 700 mmHg 47%

    21 November, Dienstag

    Zeit Temperatur Niederschläge Wind Luftdruck Luftfeuchtigkeit
    00:00 +17°C° 0 mm 5 m/S 700 mmHg 50%
    01:00 +17°C° 0 mm 5 m/S 700 mmHg 53%
    02:00 +17°C° 0 mm 4 m/S 700 mmHg 56%
    03:00 +15°C° 0 mm 4 m/S 700 mmHg 59%
    04:00 +15°C° 0 mm 4 m/S 700 mmHg 63%
    05:00 +14°C° 0 mm 4 m/S 701 mmHg 67%
    06:00 +17°C° 0 mm 4 m/S 701 mmHg 56%
    07:00 +19°C° 0 mm 4 m/S 702 mmHg 45%
    08:00 +21°C° 0 mm 4 m/S 703 mmHg 35%
    09:00 +24°C° 0 mm 3 m/S 702 mmHg 30%
    10:00 +25°C° 0 mm 2 m/S 702 mmHg 25%
    11:00 +27°C° 0 mm 2 m/S 702 mmHg 19%
    12:00 +27°C° 0 mm 2 m/S 701 mmHg 18%
    13:00 +28°C° 0 mm 2 m/S 701 mmHg 17%
    14:00 +29°C° 0 mm 2 m/S 700 mmHg 16%
    15:00 +29°C° 0 mm 2 m/S 699 mmHg 15%
    16:00 +29°C° 0 mm 1 m/S 699 mmHg 14%
    17:00 +29°C° 0 mm 1 m/S 698 mmHg 14%
    18:00 +27°C° 0 mm 2 m/S 698 mmHg 18%
    19:00 +25°C° 0 mm 3 m/S 698 mmHg 21%
    20:00 +22°C° 0 mm 4 m/S 698 mmHg 25%
    21:00 +22°C° 0 mm 4 m/S 698 mmHg 26%
    22:00 +21°C° 0 mm 4 m/S 698 mmHg 28%
    23:00 +21°C° 0 mm 5 m/S 698 mmHg 29%

    22 November, Mittwoch

    Zeit Temperatur Niederschläge Wind Luftdruck Luftfeuchtigkeit
    00:00 +21°C° 0 mm 6 m/S 698 mmHg 32%
    01:00 +21°C° 0 mm 7 m/S 697 mmHg 35%
    02:00 +21°C° 0 mm 8 m/S 697 mmHg 38%
    03:00 +19°C° 0 mm 9 m/S 697 mmHg 40%
    04:00 +19°C° 0 mm 9 m/S 696 mmHg 41%
    05:00 +19°C° 0 mm 10 m/S 696 mmHg 43%
    06:00 +21°C° 0 mm 10 m/S 697 mmHg 40%
    07:00 +23°C° 0 mm 11 m/S 697 mmHg 36%
    08:00 +24°C° 0 mm 11 m/S 698 mmHg 33%
    09:00 +27°C° 0 mm 10 m/S 698 mmHg 29%
    10:00 +29°C° 0 mm 9 m/S 698 mmHg 25%
    11:00 +32°C° 0 mm 8 m/S 698 mmHg 22%
    12:00 +33°C° 0 mm 7 m/S 697 mmHg 20%
    13:00 +33°C° 0 mm 6 m/S 697 mmHg 19%
    14:00 +34°C° 0 mm 5 m/S 696 mmHg 17%
    15:00 +34°C° 0 mm 5 m/S 696 mmHg 17%
    16:00 +34°C° 0 mm 4 m/S 696 mmHg 17%
    17:00 +34°C° 0 mm 3 m/S 695 mmHg 16%
    18:00 +30°C° 0 mm 4 m/S 695 mmHg 19%
    19:00 +28°C° 0 mm 4 m/S 696 mmHg 21%
    20:00 +26°C° 0 mm 5 m/S 696 mmHg 24%
    21:00 +25°C° 0 mm 5 m/S 696 mmHg 24%
    22:00 +23°C° 0 mm 6 m/S 697 mmHg 24%
    23:00 +23°C° 0 mm 6 m/S 697 mmHg 24%

    23 November, Donnerstag

    Zeit Temperatur Niederschläge Wind Luftdruck Luftfeuchtigkeit
    00:00 +21°C° 0 mm 7 m/S 697 mmHg 26%
    01:00 +20°C° 0 mm 7 m/S 697 mmHg 28%
    02:00 +18°C° 0 mm 7 m/S 697 mmHg 30%
    03:00 +18°C° 0 mm 7 m/S 697 mmHg 31%
    04:00 +17°C° 0 mm 7 m/S 697 mmHg 32%
    05:00 +17°C° 0 mm 6 m/S 697 mmHg 33%
    06:00 +20°C° 0 mm 7 m/S 698 mmHg 31%
    07:00 +22°C° 0 mm 7 m/S 698 mmHg 29%
    08:00 +24°C° 0 mm 7 m/S 699 mmHg 27%
    09:00 +27°C° 0 mm 7 m/S 699 mmHg 25%
    10:00 +29°C° 0 mm 6 m/S 698 mmHg 23%
    11:00 +32°C° 0 mm 6 m/S 698 mmHg 21%
    12:00 +33°C° 0 mm 6 m/S 697 mmHg 19%
    13:00 +34°C° 0 mm 6 m/S 697 mmHg 17%
    14:00 +36°C° 0 mm 6 m/S 696 mmHg 16%
    15:00 +35°C° 0 mm 6 m/S 695 mmHg 15%
    16:00 +35°C° 0 mm 5 m/S 694 mmHg 15%
    17:00 +35°C° 0 mm 5 m/S 694 mmHg 14%
    18:00 +33°C° 0 mm 6 m/S 694 mmHg 17%
    19:00 +30°C° 0 mm 6 m/S 693 mmHg 20%
    20:00 +28°C° 0 mm 7 m/S 693 mmHg 23%
    21:00 +27°C° 0 mm 6 m/S 693 mmHg 24%
    22:00 +26°C° 0 mm 6 m/S 694 mmHg 26%
    23:00 +25°C° 0 mm 5 m/S 694 mmHg 27%
    Mehr zeigen